Regional Weather Roundup
Issued by NWS

Home | Current Version | Previous Version | Text Only | Print | Product List | Glossary Off
Versions: 1 2 3 4 5 6 7 8 9 10 11 12 13 14 15 16 17 18 19 20 21 22 23 24 25 26 27 28 29 30 31 32 33 34 35 36 37 38 39 40 41 42 43 44 45 46 47 48 49 50

000
ASUS43 KFSD 282110
RWRSD

WEATHER ROUNDUP FOR SOUTH DAKOTA
NATIONAL WEATHER SERVICE SIOUX FALLS SD
400 PM CDT MON JUL 28 2014

NOTE: "FAIR" INDICATES FEW OR NO CLOUDS BELOW 12,000 FEET WITH NO
SIGNIFICANT WEATHER AND/OR OBSTRUCTIONS TO VISIBILITY.


SDZ001>005-009-010-012>017-282200-
NORTHWEST AND NORTH CENTRAL SOUTH DAKOTA

CITY           SKY/WX    TMP DP  RH WIND       PRES   REMARKS
BUFFALO          N/A     80  54  40 SE8       30.22F
FAITH            N/A     78  51  38 NE9       30.28F
MOBRIDGE       MOSUNNY   76  51  41 NE9       30.26F
$$

SDZ012>016-024>037-041>051-057-063-072>074-282200-
SOUTHWEST AND SOUTH CENTRAL SOUTH DAKOTA

CITY           SKY/WX    TMP DP  RH WIND       PRES   REMARKS
RAPID CTY ARPT SUNNY     80  56  43 SE9       30.27F
PIERRE         SUNNY     78  50  37 VRB5      30.25F
CUSTER         MOSUNNY   74  50  42 E14       30.38F
ELLSWORTH AFB  MOSUNNY   80  55  42 SE7       30.27F
PHILIP         SUNNY     84  50  30 E8        30.25F
PINE RIDGE     SUNNY     82  55  39 E3        30.27F
WINNER         FAIR      82  49  31 NE9       30.26F
$$

SDZ004>011-016>023-039-040-282200-
NORTHEAST SOUTH DAKOTA

CITY           SKY/WX    TMP DP  RH WIND       PRES   REMARKS
ABERDEEN       CLOUDY    71  50  47 NE10      30.27F
WATERTOWN      CLOUDY    74  49  41 N10G20    30.27S
SISSETON         N/A     71  51  49 N6        30.25F
$$

SDZ017-020-022-023-036>040-048>070-282200-
SOUTHEAST SOUTH DAKOTA

CITY           SKY/WX    TMP DP  RH WIND       PRES   REMARKS
SIOUX FALLS    MOSUNNY   74  54  49 NW9       30.25S
HURON          PTSUNNY   72  52  49 N10       30.26F
CHAMBERLAIN    MOSUNNY   76  51  40 N8        30.26F
MITCHELL       MOSUNNY   76  52  43 VRB3      30.26F
YANKTON        MOSUNNY   73  54  49 NW10      30.25F
$$

ABBREVIATIONS USED IN REMARKS
   TC - TEMPERATURE IN CELSIUS
  WCI - WIND CHILL INDEX
   HX - HEAT INDEX
  VSB - VISIBILITY




USA.gov is the U.S. government's official web portal to all federal, state and local government web resources and services.